Regional Weather Roundup
Issued by NWS

Home | Current Version | Previous Version | Graphics & Text | Print | Product List | Glossary On
Versions: 1 2 3 4 5 6 7 8 9 10 11 12 13 14 15 16 17 18 19 20 21 22 23 24 25 26 27 28 29 30 31 32 33 34 35 36 37 38 39 40 41 42 43 44 45 46 47 48 49 50
000
ASUS43 KLMK 220810
RWRKY
KENTUCKY REGIONAL WEATHER ROUNDUP
NATIONAL WEATHER SERVICE LOUISVILLE KY
300 AM EST THU FEB 22 2018

NOTE "FAIR" INDICATES FEW OR NO CLOUDS BELOW 12,000 FEET
WITH NO SIGNIFICANT WEATHER AND/OR OBSTRUCTIONS TO VISIBILITY.

KYZ001>023-026-027-061>063-070>075-220900-
WESTERN AND SOUTH CENTRAL KENTUCKY

CITY           SKY/WX    TMP DP  RH WIND       PRES   REMARKS
PADUCAH        LGT RAIN  40  38  93 NE9       30.29F WCI  34
HENDERSON      RAIN      41  40  96 NE9       30.33F
OWENSBORO      LGT RAIN  43  42  97 VRB5      30.33F
HOPKINSVILLE   HVY RAIN  45  45 100 N8        30.27S
BOWLING GREEN  LGT RAIN  50  50 100 NE8       30.25F
GLASGOW        LGT RAIN N/A N/A N/A NE8G21    30.26F
$$

KYZ024-025-028>034-038-045-046-053-220900-
NORTH CENTRAL KENTUCKY

CITY           SKY/WX    TMP DP  RH WIND       PRES   REMARKS
LOUISVILLE/SDF HVY RAIN  45  43  93 NE9       30.35F
LOUISVILLE/LOU RAIN      45  44  97 N8        30.35F FOG
FORT KNOX      HVY RAIN  43  43 100 N9        30.31F FOG
$$

KYZ035>037-039>044-047>052-055>060-089>105-220900-
NORTHEAST KENTUCKY

CITY           SKY/WX    TMP DP  RH WIND       PRES   REMARKS
LEXINGTON      HVY RAIN  46  43  89 N15       30.33R FOG
COVINGTON      HVY RAIN  39  39 100 NE17      30.41S FOG     WCI  30
FRANKFORT      RAIN      46  42  86 NE9       30.32F FOG
$$

KYZ054-064>069-076>088-106>120-220900-
SOUTHEAST KENTUCKY

CITY           SKY/WX    TMP DP  RH WIND       PRES   REMARKS
JACKSON        FOG       51  50  96 VRB5      30.31F VSB 1/4
LONDON         CLOUDY    56  55  97 CALM      30.27F
SOMERSET       CLOUDY    52  52 100 N3        30.28F
MIDDLESBORO    FAIR      63  60  89 SE3       30.29F
MONTICELLO     NOT AVBL
$$





USA.gov is the U.S. government's official web portal to all federal, state and local government web resources and services.